Regional Weather Roundup
Issued by NWS Jackson, KY

Home | Current Version | Previous Version | Text Only | Print | Product List | Glossary On
Versions: 1 2 3 4 5 6 7 8 9 10 11 12 13 14 15 16 17 18 19 20 21 22 23 24 25 26 27 28
000
ASUS43 KJKL 210010
RWRJKL

EAST KENTUCKY HOURLY WEATHER ROUNDUP
NATIONAL WEATHER SERVICE JACKSON KY
700 PM EST MON NOV 20 2017

NOTE: "FAIR" INDICATES FEW OR NO CLOUDS BELOW 12,000 FEET WITH
NO SIGNIFICANT WEATHER AND/OR OBSTRUCTIONS TO VISIBILITY.

* THESE REPORTS ARE NOT UNDER NWS QUALITY CONTROL AND MAY NOT
  REPORT WEATHER SUCH AS PRECIPITATION AND FOG.

KYZ079-080-083-085-087-088-110-112-115-119-120-210100
...EASTERN KENTUCKY...

CITY           SKY/WX    TMP DP  RH WIND       PRES   REMARKS
JACKSON        CLOUDY    44  21  40 S3        30.11S
6HR MIN TEMP:  43; 6HR MAX TEMP:  49;

LONDON         CLOUDY    40  26  57 S3        30.11F
6HR MIN TEMP:  40; 6HR MAX TEMP:  50;

SOMERSET*      CLOUDY    39  27  60 S3        30.12F
MONTICELLO*    CLOUDY    34  27  75 CALM      30.12F
6HR MIN TEMP:  33; 6HR MAX TEMP:  52;

WILLIAMSBURG*  CLOUDY    45  25  45 SE6       30.11F
MIDDLESBORO*   CLOUDY    38  29  68 CALM      30.15S
6HR MIN TEMP:  38; 6HR MAX TEMP:  52;

HARLAN APT*    CLOUDY    43  23  45 CALM      30.13F
PIKE CO APT*     N/A     45  23  41 S3        30.11S
BIG SANDY APT* CLOUDY    42  25  50 CALM      30.11F
6HR MIN TEMP:  42; 6HR MAX TEMP:  49;

MOREHEAD APT*  CLOUDY    43  19  39 S3        30.12S
$$

KYZ035-036-041-042-044-050-067-078-099-210100
...CENTRAL KENTUCKY...

CITY           SKY/WX    TMP DP  RH WIND       PRES   REMARKS
MT STERLING*   CLOUDY    43  25  49 S6        30.10F
DANVILLE*      CLEAR     37  23  56 CALM      30.10S
LEXINGTON      CLOUDY    42  24  49 S7        30.08F
6HR MIN TEMP:  41; 6HR MAX TEMP:  48;

FRANKFORT      CLOUDY    40  25  55 S3        30.07F
6HR MIN TEMP:  39; 6HR MAX TEMP:  49;

LOUISVILLE     CLOUDY    46  25  43 SE3       30.08S
6HR MIN TEMP:  45; 6HR MAX TEMP:  51;

LEBANON*         N/A     43  19  39 CALM      30.08F
GLASGOW*       CLEAR     42  20  42 CALM      30.09S
BOWLING GREEN  CLEAR     46  23  40 SW3       30.09S
6HR MIN TEMP:  45; 6HR MAX TEMP:  53;

$$

KYZ091>093-OHZ055-061-077-WVZ005-015-034-035-042-210100
...SOUTHERN OHIO/WEST VIRGINIA...

CITY           SKY/WX    TMP DP  RH WIND       PRES   REMARKS
COVINGTON      CLOUDY    38  28  67 S8        30.07R WCI  32
COLUMBUS       MOCLDY    40  25  55 S7        30.06S
DAYTON         CLOUDY    41  26  55 S12       30.04S
WILMINGTON     CLOUDY    37  28  70 S8        30.06F WCI  31
HUNTINGTON     CLOUDY    41  21  44 SE5       30.11F
CHARLESTON     CLOUDY    39  24  55 CALM      30.13F
PINEVILLE*     CLOUDY    34  28  80 MISG      30.18S
BECKLEY        CLOUDY    39  19  44 SE6       30.12F WCI  35
BLUEFIELD      CLOUDY    42  15  33 SW6       30.13F
LOGAN CO APT*    N/A     45  19  36 CALM      30.11S
$$

VAZ002-007-008-TNZ017-027-036-066-071-210100
...SOUTHWEST VIRGINIA/EAST TENNESSEE...

CITY           SKY/WX    TMP DP  RH WIND       PRES   REMARKS
WISE*          CLOUDY    41  19  42 CALM      30.13F
JONESVILLE*      N/A     36  28  75 CALM      30.17F
ABINGDON*      CLOUDY    40  25  54 CALM      30.15S
BRISTOL        CLOUDY    36  27  69 CALM      30.15S
MORRISTOWN*    CLEAR     39  25  56 CALM      30.14S
SEVIERVILLE*   CLEAR     39  32  75 CALM      30.14S
KNOXVILLE      CLOUDY    44  30  57 N3        30.14R
LAFOLLETTE*    CLEAR     36  30  80 CALM      30.18R
OAK RIDGE      CLEAR     40  32  73 CALM      30.16S
CROSSVILLE     CLOUDY    41  21  44 CALM      30.12S
NASHVILLE      MOCLDY    49  23  36 CALM      30.10S
$$

...KEY TO REMARKS...
VSB - VISIBILITY IN MILES
WCI - WIND CHILL INDEX
HX  - HEAT INDEX

$$




USA.gov is the U.S. government's official web portal to all federal, state and local government web resources and services.